User: anonymous   Login
Location: Unspecified
(0.0000°N, 0.0000°E)
Time: 01:07:14
(UTC+00:00)
Language:

RUNNER-1 (TYVAK-1005) - Orbit

View from above orbital plane
View from above orbital plane
View from above satellite
View from above satellite

Ground track
Ground track

The orbit is defined by the following mean orbital elements,

1 56953U          26145.35333807 +.00000000 +00000-0 +27379-3 0 00002
2 56953  97.6205 286.5995 0008582  44.0436 316.1490 15.37233882    03
Epoch (UTC): 25 May 2026 08:28:48
Eccentricity: 0.0008582
inclination: 97.6205°
perigee height: 448 km
apogee height: 460 km
right ascension of ascending node: 286.5995°
argument of perigee: 44.0436°
revolutions per day: 15.37233882
mean anomaly at epoch: 316.1490°

The dashed part of the orbit path shows where the satellite is in the earth's shadow,  

DLR